Regional Weather Roundup
Issued by NWS

Home | Current Version | Previous Version | Text Only | Print | Product List | Glossary On
Versions: 1 2 3 4 5 6 7 8 9 10 11 12 13 14 15 16 17 18 19 20 21 22 23 24 25 26 27 28 29 30 31 32 33 34 35 36 37 38 39 40 41 42 43 44 45 46 47 48 49 50
000
ASUS43 KDTX 211610
RWRMI
MICHIGAN HOURLY REGIONAL WEATHER ROUNDUP
NATIONAL WEATHER SERVICE DETROIT/PONTIAC MI
1200 PM EDT TUE OCT 21 2014

NOTE: "FAIR" INDICATES FEW OR NO CLOUDS BELOW 12,000 FEET WITH NO
SIGNIFICANT WEATHER AND/OR OBSTRUCTION TO VISIBILITY.

MIZ047>049-052>055-059>063-066>070-074>076-081>083-211700-
SOUTHEAST LOWER MICHIGAN

CITY           SKY/WX    TMP DP  RH WIND       PRES   REMARKS
ADRIAN         CLOUDY    49  42  77 NE14      30.05R
ALMA           CLOUDY    46  37  71 N12G18    30.11S
ANN ARBOR      CLOUDY    47  40  76 N17G23    30.04R
BAD AXE        CLOUDY    44  40  88 N13G23    30.07R
DETROIT CITY   CLOUDY    49  39  68 N17G23    30.04R
DETROIT        CLOUDY    48  39  71 N13G22    30.04R
FLINT          CLOUDY    47  39  74 N13       30.08R
GROSSE ILE     CLOUDY    48  41  76 N9G18     30.02R
HILLSDALE      CLOUDY    49  42  78 N15G21    30.05R
HOWELL         CLOUDY    44  40  87 N8G16     30.06R

CITY           SKY/WX    TMP DP  RH WIND       PRES   REMARKS
JACKSON        CLOUDY    47  42  83 N9G16     30.07R
LAMBERTVILLE   CLOUDY    52  41  66 N10       30.03R
LANSING        CLOUDY    47  37  68 N8        30.10R
LAPEER         NOT AVBL
MASON          CLOUDY    46  40  81 N12G17    30.08R
MONROE         CLOUDY    48  43  81 N15       30.02R
MT. CLEMENS    CLOUDY    46  42  85 N16       30.00R
PONTIAC        CLOUDY    45  38  76 N15G22    30.03R
PORT HOPE        N/A     46  40  79 N20G26    30.05R
PORT HURON     CLOUDY    45  41  87 NW9G17    30.01R
TRI CITIES     LGT RAIN  47  36  65 N15       30.11R
YPSILANTI      CLOUDY    50  40  68 N14       30.04R
$$
MIZ043>046-050>051-056>058-064>065-071>073-077>080-211700-
SOUTHWEST LOWER MICHIGAN

CITY           SKY/WX    TMP DP  RH WIND       PRES   REMARKS
BATTLE CREEK   LGT RAIN  47  40  76 N15       30.10R
BENTON HARBOR  PTSUNNY   50  42  74 NE9G17    30.12R
BIG RAPIDS     CLOUDY    45  40  83 N7        30.14R
COLDWATER      CLOUDY    49  44  81 N10G16    30.08R
HOLLAND        CLOUDY    51  39  63 N7        30.14R
GRAND RAPIDS   CLOUDY    48  41  76 N15       30.12R
KALAMAZOO      CLOUDY    49  44  83 N10       30.10R
MARSHALL       CLOUDY    46  40  81 N3        30.08R
MUSKEGON       CLOUDY    49  38  65 NE13      30.15R
$$
MIZ016>042-211700-
NORTHERN LOWER MICHIGAN

CITY           SKY/WX    TMP DP  RH WIND       PRES   REMARKS
ALPENA         CLOUDY    43  33  68 N16       30.16R
BEAVER ISLAND  PTSUNNY   46  35  66 NE10      30.21R
BELLAIRE       MOSUNNY   47  34  60 N8        30.18R
CADILLAC       CLOUDY    41  37  87 N6        30.14R
CHARLEVOIX     SUNNY     46  34  62 NE9       30.22R
FRANKFORT      MOSUNNY   49  34  57 NE10G22   30.18R
GAYLORD        MOSUNNY   43  32  65 VRB7      30.15R
GRAYLING       MOSUNNY   47  34  61 NE15      30.15R
HARBOR SPRINGS SUNNY     46  32  58 N12       30.19R
HOUGHTON LAKE  CLOUDY    44  34  67 N9        30.14R
MANISTEE       CLOUDY    46  36  66 NE9G20    30.18R
OSCODA         CLOUDY    44  35  72 N21       30.11R
PELLSTON       MOSUNNY   44  31  60 NE14      30.20R
TRAVERSE CITY  CLOUDY    47  34  60 NE10      30.17R
$$
MIZ007>008-015-211700-
EASTERN UPPER MICHIGAN

CITY           SKY/WX    TMP DP  RH WIND       PRES   REMARKS
KINROSS        SUNNY     39  30  70 N13       30.21S
MACKINAC ISLAN SUNNY     43  31  62 N9        30.20S
NEWBERRY       SUNNY     41  32  70 N10G18    30.22R
S. S. MARIE    SUNNY     42  26  53 VRB6      30.22R
$$
MIZ004>006-011>014-085-211700-
CENTRAL UPPER MICHIGAN

CITY           SKY/WX    TMP DP  RH WIND       PRES   REMARKS
MANISTIQUE     MOSUNNY   46  34  64 N12G17    30.23R
ESCANABA       SUNNY     46  30  53 NE10G18   30.24R
MENOMINEE      MOSUNNY   46  34  61 N9        30.23S
SAWYER-GWINN   PTSUNNY   41  32  70 N13       30.26R
$$
MIZ001>003-009>011-084-211700-
WESTERN UPPER MICHIGAN

CITY           SKY/WX    TMP DP  RH WIND       PRES   REMARKS
IRON MOUNTAIN  MOSUNNY   44  32  62 N9        30.25R
HOUGHTON       SUNNY     43  31  62 VRB7      30.27S
COPPER HARBOR    N/A     43  34  70 VRB6      30.29S
IRONWOOD       CLOUDY    39  34  81 E9        30.24S
$$

ABBREVIATIONS USED IN REMARKS
   TC - TEMPERATURE IN CELSIUS
  WCI - WIND CHILL INDEX
   HX - HEAT INDEX
  VSB - VISIBILITY



USA.gov is the U.S. government's official web portal to all federal, state and local government web resources and services.